CW6427 Weather Reports


Display with metric or nautical units.
time (UTC)temp
F
wind
direction
speed
MPH
gust
MPH
rain 1hr
in
rain 24hr
in
rain mn
in
humidity
%
barometer
mb
20260508221841 52 284 3.0 8.0 0.00 0.04 0.04 53 1012.2
20260508220911 52 269 1.0 6.0 0.00 0.04 0.04 56 1012.3
20260508215911 52 277 2.0 10.0 0.00 0.04 0.04 55 1012.2
20260508214911 51 5 3.0 8.0 0.00 0.04 0.04 56 1012.3
20260508212840 51 321 5.0 11.0 0.00 0.04 0.04 54 1012.5
20260508211910 51 277 6.0 13.0 0.00 0.04 0.04 55 1012.5
20260508210840 51 311 3.0 11.0 0.00 0.04 0.04 56 1012.4
20260508204910 50 263 6.0 14.0 0.00 0.04 0.04 57 1012.6
20260508203839 50 309 11.0 16.0 0.00 0.04 0.04 56 1012.7
20260508202839 49 184 5.0 13.0 0.00 0.04 0.04 60 1012.6
20260508201909 49 213 2.0 12.0 0.00 0.04 0.04 64 1012.6
20260508200909 50 286 9.0 14.0 0.00 0.04 0.04 60 1012.8
20260508195908 49 289 3.0 16.0 0.00 0.04 0.04 63 1012.9
20260508194909 50 5 3.0 10.0 0.00 0.04 0.04 64 1012.9
20260508193838 49 340 5.0 11.0 0.00 0.04 0.04 66 1013.0
20260508192908 48 284 6.0 15.0 0.00 0.04 0.04 67 1012.9
20260508191908 48 309 1.0 11.0 0.00 0.04 0.04 68 1012.9
20260508190908 48 186 0.0 13.0 0.00 0.04 0.04 72 1013.0
20260508185908 47 205 1.0 12.0 0.00 0.04 0.04 73 1013.2
20260508184907 47 191 12.0 12.0 0.00 0.04 0.04 72 1013.3
20260508183907 46 198 7.0 14.0 0.00 0.04 0.04 75 1013.3
20260508182907 45 180 3.0 10.0 0.00 0.04 0.04 76 1013.2
20260508181907 45 197 4.0 14.0 0.00 0.04 0.04 76 1013.2
20260508180907 46 202 9.0 16.0 0.00 0.04 0.04 76 1013.4
20260508175906 46 217 4.0 11.0 0.00 0.04 0.04 79 1013.4
20260508174906 45 196 4.0 9.0 0.00 0.04 0.04 80 1013.4
20260508173906 44 289 5.0 11.0 0.00 0.04 0.04 79 1013.6
20260508172906 44 190 2.0 12.0 0.00 0.04 0.04 82 1013.8
20260508171906 43 199 7.0 10.0 0.00 0.04 0.04 82 1013.9
20260508170906 44 219 3.0 10.0 0.00 0.04 0.04 85 1013.7
20260508164905 42 281 6.0 8.0 0.00 0.04 0.04 86 1013.6
20260508163905 42 190 2.0 7.0 0.00 0.04 0.04 87 1013.6
20260508162905 41 281 4.0 10.0 0.00 0.04 0.04 86 1013.5
20260508161905 42 289 3.0 12.0 0.00 0.04 0.04 87 1013.5
20260508160904 42 173 5.0 11.0 0.00 0.04 0.04 92 1013.5
20260508155904 42 208 4.0 11.0 0.00 0.04 0.04 91 1013.4
20260508154904 41 271 3.0 11.0 0.00 0.04 0.04 92 1013.3
20260508153904 41 267 8.0 12.0 0.00 0.04 0.04 94 1013.5
20260508152904 40 207 9.0 11.0 0.01 0.04 0.04 93 1013.4
20260508151904 39 200 3.0 9.0 0.01 0.04 0.04 92 1013.4
20260508150904 39 227 6.0 12.0 0.01 0.04 0.04 92 1013.3
20260508144904 39 184 3.0 13.0 0.01 0.04 0.04 92 1013.3
20260508143903 39 140 2.0 10.0 0.01 0.04 0.04 93 1013.3
20260508142903 39 175 7.0 8.0 0.00 0.03 0.03 92 1013.1
20260508141903 39 202 3.0 9.0 0.00 0.03 0.03 92 1013.0
20260508140903 38 225 3.0 13.0 0.00 0.03 0.03 92 1012.9
20260508134902 39 187 11.0 12.0 0.00 0.03 0.03 89 1013.0
20260508132902 41 288 4.0 8.0 0.00 0.03 0.03 87 1013.0
20260508130902 42 128 2.0 5.0 0.00 0.03 0.03 89 1012.7
20260508125902 42 286 1.0 6.0 0.00 0.03 0.03 90 1012.8
20260508124902 41 355 0.0 3.0 0.00 0.03 0.03 92 1012.5
20260508123902 41 277 0.0 3.0 0.00 0.03 0.03 93 1012.1
20260508122901 41 309 1.0 4.0 0.00 0.03 0.03 95 1011.9
20260508121901 41 360 2.0 4.0 0.00 0.03 0.03 95 1012.0
20260508120901 40 123 2.0 5.0 0.00 0.03 0.03 95 1012.2
20260508113901 39 86 4.0 4.0 0.01 0.03 0.03 96 1012.1
20260508112900 39 138 1.0 4.0 0.01 0.03 0.03 95 1012.5
20260508111900 39 192 1.0 6.0 0.01 0.03 0.03 96 1012.6
20260508105900 38 213 3.0 6.0 0.01 0.03 0.03 96 1012.8
20260508104859 38 215 2.0 5.0 0.01 0.03 0.03 96 1012.6
20260508102859 37 216 1.0 5.0 0.00 0.02 0.02 97 1012.7
20260508100859 36 227 1.0 4.0 0.00 0.02 0.02 97 1012.6
20260508095859 35 182 1.0 3.0 0.00 0.02 0.02 97 1012.5
20260508094858 34 171 1.0 4.0 0.00 0.02 0.02 96 1012.4
20260508093858 34 145 0.0 0.0 0.00 0.02 0.02 95 1012.2
20260508090858 36 144 1.0 1.0 0.00 0.02 0.02 95 1012.3
20260508085858 36 144 0.0 3.0 0.00 0.02 0.02 95 1012.4
20260508084857 37 144 2.0 3.0 0.00 0.02 0.02 95 1012.4
20260508083858 37 42 0.0 1.0 0.00 0.02 0.02 94 1012.5
20260508080857 38 342 1.0 2.0 0.02 0.02 0.02 94 1012.7
20260508075857 37 294 0.0 4.0 0.02 0.02 0.02 94 1012.6
20260508072856 37 5 2.0 6.0 0.01 0.01 0.01 92 1012.6
20260508071856 38 5 3.0 8.0 0.01 0.01 0.01 91 1012.6
20260508070856 38 302 4.0 9.0 0.00 0.00 0.00 90 1012.6
20260508065855 39 340 6.0 14.0 0.00 0.00 0.00 87 1012.7
20260508064856 40 313 5.0 13.0 0.00 0.00 0.00 83 1012.6
20260508063855 41 299 5.0 9.0 0.00 0.00 0.00 79 1012.6
20260508062855 41 342 3.0 10.0 0.00 0.00 0.00 76 1012.5
20260508061855 41 302 5.0 8.0 0.00 0.00 0.00 74 1012.4
20260508060855 42 303 4.0 6.0 0.00 0.00 0.00 73 1012.5
20260508055854 41 266 4.0 4.0 0.00 0.00 0.00 75 1012.3
20260508054854 41 276 0.0 4.0 0.00 0.00 0.00 74 1012.2
20260508053855 40 268 1.0 3.0 0.00 0.00 0.00 76 1012.1
20260508051854 40 267 0.0 3.0 0.00 0.00 0.00 77 1012.0
20260508050854 40 267 0.0 2.0 0.00 0.00 0.00 75 1012.1
20260508045854 41 267 0.0 3.0 0.00 0.00 0.00 74 1012.3
20260508043853 41 267 0.0 3.0 0.00 0.00 0.00 72 1012.2
20260508042853 41 226 0.0 3.0 0.00 0.00 0.00 74 1012.3
20260508041853 40 226 0.0 3.0 0.00 0.00 0.00 78 1012.2
20260508040853 39 219 0.0 0.0 0.00 0.00 0.00 79 1012.1
20260508034853 38 219 0.0 0.0 0.00 0.00 0.00 82 1012.1
20260508033853 38 219 0.0 0.0 0.00 0.00 0.00 82 1012.1
20260508032852 37 219 0.0 0.0 0.00 0.00 0.00 82 1012.0
20260508031852 37 219 0.0 1.0 0.00 0.00 0.00 82 1012.0
20260508030852 37 219 0.0 2.0 0.00 0.00 0.00 81 1012.1
20260508025851 37 220 0.0 0.0 0.00 0.00 0.00 78 1011.7
20260508024852 38 220 0.0 3.0 0.00 0.00 0.00 77 1011.7
20260508023852 38 217 3.0 4.0 0.00 0.00 0.00 77 1011.5
20260508021851 39 302 0.0 2.0 0.00 0.00 0.00 76 1011.3
20260508015851 40 306 3.0 4.0 0.00 0.00 0.00 72 1011.6
20260508014850 40 301 2.0 3.0 0.00 0.00 0.00 72 1011.7
20260508013851 40 296 2.0 4.0 0.00 0.00 0.00 73 1011.7
20260508012850 41 300 2.0 3.0 0.00 0.00 0.00 72 1011.7
20260508011850 41 302 2.0 4.0 0.00 0.00 0.00 71 1011.8
20260508010850 42 306 3.0 3.0 0.00 0.00 0.00 72 1011.7
20260508005850 42 302 2.0 4.0 0.00 0.00 0.00 74 1011.6
20260508003850 43 321 3.0 4.0 0.00 0.00 0.00 71 1011.4
20260508002849 44 324 2.0 4.0 0.00 0.00 0.00 68 1011.5
20260508001849 45 311 3.0 4.0 0.00 0.00 0.00 68 1011.2
20260508000849 45 310 2.0 4.0 0.00 0.00 0.00 68 1011.1
20260507235849 46 332 2.0 4.0 0.00 0.00 0.00 67 1011.1
20260507234848 46 314 2.0 4.0 0.00 0.00 0.00 66 1010.9
20260507233849 46 342 2.0 6.0 0.00 0.00 0.00 64 1010.9
20260507232848 47 319 4.0 9.0 0.00 0.00 0.00 62 1010.9
20260507230848 48 322 3.0 8.0 0.00 0.00 0.00 60 1010.9
20260507225848 48 307 1.0 10.0 0.00 0.00 0.00 61 1010.8
20260507224848 48 333 5.0 9.0 0.00 0.00 0.00 59 1010.7
20260507222848 48 317 10.0 13.0 0.00 0.00 0.00 58 1010.7